747  
ASUS42 KCAE 222110  
RWRCAE  
REGIONAL WEATHER ROUNDUP  
NATIONAL WEATHER SERVICE COLUMBIA SC  
500 PM EDT MON MAY 22 2017  
 
NOTE: "FAIR" INDICATES FEW OR NO CLOUDS BELOW 12,000 FEET WITH NO  
SIGNIFICANT WEATHER AND/OR S TO VISIBILITY
.  
 
NOT ALL STATIONS ARE QUALITY CONTROLLED BY THE NATIONAL  
WEATHER SERVICE. USE DATA WITH CAUTION...ESPECIALLY  
DEWPOINT OBSERVATIONS.  
 
SCZ001>056-GAZ040-063>065-077-222200-   
..UPSTATE SOUTH CAROLINA
 
 
 
CITY SKY/WX TMP DP RH WIND PRES REMARKS
 
ANDERSON LGT RAIN 68 64 87 NW7 29.98F  
SPARTANBURG CLOUDY 77 64 65 CALM 29.97F  
CLEMSON LGT RAIN 69 64 84 W6 29.99F  
GREENVILLE LGT RAIN 78 67 68 NW8 29.99S  
GREENWOOD CLOUDY 75 65 70 VRB3 29.98S  
GREER CLOUDY 77 68 73 W5 29.96F  
ROCK HILL CLOUDY 78 67 68 W3 29.97F  
CHESTER TSTM 72 64 78 S10G18 30.00R  
LAURENS CLOUDY 70 68 94 E7 29.97F  
 
   
..CENTRAL SOUTH CAROLINA
 
 
 
CITY SKY/WX TMP DP RH WIND PRES REMARKS
 
COLUMBIA APT TSTM 73 69 87 NW5 29.97R FOG  
COLUMBIA OWENS CLOUDY 76 69 79 CALM 29.96S  
MCENTIRE ANGB TSTM 73 66 79 CALM 29.96R  
ORANGEBURG RAIN 70 68 93 S14 29.97R FOG  
SUMTER SHAW LGT RAIN 73 68 83 CALM 29.93R  
NEWBERRY RAIN 68 66 94 CALM 30.00F  
AIKEN RAIN 66 64 94 CALM 30.02F  
BARNWELL FAIR 75 73 94 E6 29.96S  
MANNING FAIR 72 70 94 S16G23 29.94F  
CAMDEN MOCLDY 72 68 88 N6 29.95F  
LANCASTER CLOUDY 75 73 94 S5 29.97S  
WINNSBORO RAIN 68 68 100 NW5 29.96F  
 
   
..EASTERN AND COASTAL SOUTH CAROLINA
 
 
 
CITY SKY/WX TMP DP RH WIND PRES REMARKS
 
MYRTLE BEACH MOSUNNY 79 72 78 S18 29.95F  
N MYRTLE BCH CLOUDY 79 72 79 S15 29.93F  
CONWAY TSTM 72 68 88 S10 29.94S  
MARION FAIR 86 68 54 SW6 29.91F  
HARTSVILLE FAIR 79 70 73 W3 29.93F  
FLORENCE CLOUDY 84 70 62 W9 29.91F  
DARLINGTON CLOUDY 83 71 67 W7 29.94F  
CHARLESTON APT LGT RAIN 78 72 81 S13 29.95S  
MOUNT PLEASANT FAIR 79 73 83 S12 29.95F  
WALTERBORO CLOUDY 72 68 88 CALM 29.97S  
BEAUFORT LGT RAIN 78 76 93 S6 29.98R  
 
   
..EASTERN GEORGIA
 
 
 
CITY SKY/WX TMP DP RH WIND PRES REMARKS
 
AUGUSTA BUSH F CLOUDY 77 71 82 N10 29.95S  
AUGUSTA DANIEL LGT RAIN 73 68 84 NE8 29.97F  
THOMSON LGT RAIN 72 70 95 CALM 30.00F  
WASHINGTON FAIR 75 73 94 NW5 29.98R  
CLAXTON MOCLDY N/A N/A N/A CALM 29.92F  
SYLVANIA MOCLDY 82 73 76 CALM 29.95S  
STATESBORO PTSUNNY 82 74 76 CALM 29.94F  
SAVANNAH HAIL 73 66 78 N14G46 29.98R VSB<1/4  
 
   
..SOUTHERN NORTH CAROLINA
 
 
 
CITY SKY/WX TMP DP RH WIND PRES REMARKS
 
CHARLOTTE CLOUDY 80 67 64 CALM 29.96F  
MONROE CLOUDY 76 68 76 SW6 29.95F  
WADESBORO CLOUDY 82 67 62 CALM 29.95S  
ROCKINGHAM LGT RAIN 79 72 77 W3 29.95S  
RUTHERFORDTON DRIZZLE 72 67 84 W9 30.00F  
ASHEVILLE LGT RAIN 69 62 78 S5 30.04S  
 

 
 
 
CLICK HERE TO GO TO PREVIOUS BULLETINS.

The Nexlab SC Page
The Nexlab GA Page Main Text Page